Regional Weather Roundup
Issued by NWS Jackson, KY

Home | Current Version | Previous Version | Text Only | Print | Product List | Glossary Off
Versions: 1 2 3 4 5 6 7 8 9 10 11 12 13 14 15 16 17 18 19 20 21 22 23 24 25 26 27 28 29 30 31 32 33 34 35 36 37 38 39 40 41 42 43 44 45 46 47 48 49 50

000
ASUS43 KJKL 210310
RWRJKL

EAST KENTUCKY HOURLY WEATHER ROUNDUP
NATIONAL WEATHER SERVICE JACKSON KY
1000 PM EST TUE FEB 20 2018

NOTE: "FAIR" INDICATES FEW OR NO CLOUDS BELOW 12,000 FEET WITH
NO SIGNIFICANT WEATHER AND/OR OBSTRUCTIONS TO VISIBILITY.

* THESE REPORTS ARE NOT UNDER NWS QUALITY CONTROL AND MAY NOT
  REPORT WEATHER SUCH AS PRECIPITATION AND FOG.

KYZ079-080-083-085-087-088-110-112-115-119-120-210400
...EASTERN KENTUCKY...

CITY           SKY/WX    TMP DP  RH WIND       PRES   REMARKS
JACKSON          N/A     69  51  52 VRB6      30.26S
LONDON         MOCLDY    70  55  59 S10       30.26R
SOMERSET*        N/A     68  55  64 MISG      30.25S
WILLIAMSBURG*  MOCLDY    68  57  68 S10       30.27S
MIDDLESBORO*   MOCLDY    67  55  63 CALM      30.31R
HARLAN APT*    CLOUDY    70  48  46 SE3       30.31R
PIKE CO APT*     N/A     70  52  52 S9        30.29S
BIG SANDY APT* MOCLDY    71  52  51 S9        30.27S
MOREHEAD APT*    N/A     70  54  56 S9        30.23R
ASHLAND*         N/A     70  54  56 SE5       30.21R
$$

KYZ035-036-041-042-044-050-067-078-099-210400
...CENTRAL KENTUCKY...

CITY           SKY/WX    TMP DP  RH WIND       PRES   REMARKS
MT STERLING*     N/A     68  54  60 SW12      30.23S
FLEMING/MASON* MOCLDY    66  54  66 S7        30.21R
DANVILLE*        N/A     68  55  64 S8        30.22S
LEXINGTON        N/A     68  57  68 S10       30.20R
FRANKFORT      MOCLDY    70  55  59 S12       30.16S
LOUISVILLE     CLOUDY    74  58  57 S17G25    30.12S
LEBANON*         N/A     68  57  68 S15       30.19S
GLASGOW*         N/A     69  58  67 S7        30.18S
BOWLING GREEN  MOCLDY    72  61  68 S13G21    30.16S
$$

KYZ091>093-OHZ055-061-077-WVZ005-015-034-035-042-210400
...SOUTHERN OHIO/WEST VIRGINIA...

CITY           SKY/WX    TMP DP  RH WIND       PRES   REMARKS
COVINGTON      CLOUDY    67  57  70 S10       30.14R
COLUMBUS       MOCLDY    68  55  63 S9        30.15R
DAYTON         MOCLDY    68  56  65 S14       30.13R
WILMINGTON     MOCLDY    66  57  72 S12       30.15S
HUNTINGTON       N/A     71  51  49 S10G17    30.22S
CHARLESTON       N/A     64  50  60 CALM      30.24S
BECKLEY          N/A     60  51  72 SE9       30.36R
BLUEFIELD        N/A     59  49  69 VRB7      30.40R
LOGAN CO APT*  CLOUDY    72  48  43 S7G13     30.29S
$$

VAZ002-007-008-TNZ017-027-036-066-071-210400
...SOUTHWEST VIRGINIA/EAST TENNESSEE...

CITY           SKY/WX    TMP DP  RH WIND       PRES   REMARKS
WISE*            N/A     64  52  63 S12       30.37S
JONESVILLE*    MOCLDY    68  50  52 SE5       30.34S
ABINGDON*      MOCLDY    63  53  68 CALM      30.38F
BRISTOL          N/A     65  52  62 CALM      30.36S
MORRISTOWN*    CLOUDY    70  52  52 S7        30.32S
SEVIERVILLE*   MOCLDY    68  54  60 VRB3      30.30F
KNOXVILLE      MOCLDY    70  57  63 S9        30.29S
LAFOLLETTE*    MOCLDY    70  57  64 CALM      30.33S
OAK RIDGE      MOCLDY    70  59  68 SW3       30.31R
CROSSVILLE     CLOUDY    65  58  78 S13G20    30.30S
NASHVILLE      MOCLDY    71  60  68 S14       30.18S
$$

...KEY TO REMARKS...
VSB - VISIBILITY IN MILES
WCI - WIND CHILL INDEX
HX  - HEAT INDEX

$$



USA.gov is the U.S. government's official web portal to all federal, state and local government web resources and services.